Back to catalog

RADIATION SAT

5E 1

AliveSciencePO
NORAD 671·PAYLOAD·🇺🇸 United States

Launched Sep 28, 1963 from Vandenberg Space Force Base

Loading…

Next Passes (next 24 hours)

TLE

FreshSource: Space-Track

Epoch: Sep 14, 2026, 11:22 UTC

1 00671U 63038C   26257.47408067  .00000063  00000-0  90002-4 0  9996
2 00671  89.9676 332.7174 0042239  94.7572 265.8402 13.45233718 87056

Track RADIATION SAT in real time with AllMySat

Download on the App Store